Location: Kaikalui
(16.5250°N, 81.1500°E)
Time: 09:00:52
(UTC+00:00)

Cosmos 858 Rocket - Pass Details

Date: 14 April 2026
Orbit: 752 x 769 km, 74.1° (Epoch: 12 May)

Event Time Altitude Azimuth Distance (km) Brightness Sun altitude
Rises 13:29:56 0° 192° (SSW) 3,225 7.7 -10.1°
Reaches altitude 10° 13:32:17 10° 192° (SSW) 2,301 7.0 -10.6°
Maximum altitude 13:37:31 87° 105° (ESE) 772 4.5 -11.8°
Drops below altitude 10° 13:42:46 10° 14° (NNE) 2,303 7.0 -13.0°
Sets 13:45:08 0° 14° (NNE) 3,229 7.7 -13.6°
